Regional Weather Roundup
Issued by NWS

Home | Current Version | Previous Version | Text Only | Print | Product List | Glossary On
Versions: 1 2 3 4 5 6 7 8 9 10 11 12 13 14 15 16 17 18 19 20 21 22 23 24 25 26 27 28 29 30 31 32 33 34 35 36 37 38 39 40 41 42 43 44 45 46 47 48 49 50
000
ASCA42 TJSJ 041910
RWRPR
PUERTO RICO/U.S. VIRGIN ISLANDS HOURLY WEATHER ROUNDUP
NATIONAL WEATHER SERVICE SAN JUAN PR
300 PM AST FRI SEP 04 2015

PRZ001-004-042000-
PUERTO RICO

CITY           SKY/WX    TMP DP  RH WIND       PRES   REMARKS
SAN JUAN LMM   MOSUNNY   88  75  66 NE16      29.94F HX  97
PONCE          MOSUNNY   90  72  55 S12       29.91  HX  96
MAYAGUEZ       PTSUNNY   91  73  55 W14       29.98  HX 100
AGUADILLA      MOSUNNY   84  73  70 NW3       29.97F HX  91
CEIBA          MOSUNNY   88  77  70 E9        29.96F HX 100
$$

PRZ006-007-042000-
U.S. VIRGIN ISLANDS

CITY           SKY/WX    TMP DP  RH WIND       PRES   REMARKS
CHARLOTTE AMA  CLOUDY    84  77  79 N8        29.95F HX  94
CHRISTIANSTED  MOSUNNY   88  75  66 E10       29.95F HX  97
$$

HOURLY WEATHER ROUNDUP FOR THE NEWS MEDIA

CITY           SKY/WX    TMP DP  RH WIND       PRES   REMARKS
ORLANDO        TSTM      86  76  71 VRB7      29.95R HX  96
NEW YORK       PTSUNNY   81  68  64 SE12      30.11S
NEWARK         CLOUDY    83  68  60 NE7       30.09F
CHICAGO        MOSUNNY   84  69  60 E6        30.00F
HARTFORD       PTSUNNY   72  62  71 NE9G20    30.15S
BOSTON         CLOUDY    68  59  73 E14       30.20S
DALLAS         PTSUNNY   92  67  43 SE7       29.94F HX  95
PHILADELPHIA   MOSUNNY   90  69  50 E14       30.04R HX  94
LOS ANGELES    PTSUNNY   72  59  63 W13       29.90F
WASHINGTON DC  PTSUNNY   80  65  59 NW6       30.01F THUNDER


USA.gov is the U.S. government's official web portal to all federal, state and local government web resources and services.